Yatton Keynell, United Kingdom

7:18 AM GMT on March 26, 2019 (GMT +0000)
Yatton Keynell

Weather History for 03740 - June, 2007

Change the Weather History Date:

Sunday, June 24, 2007

  Actual Average Record
Temperature  
Mean Temperature 54 °F -  
Max Temperature 58 °F 68 °F - ()
Min Temperature 51 °F 52 °F - ()
Degree Days  
Heating Degree Days 10    
Growing Degree Days 4 (Base 50)    
Moisture  
Dew Point 52 °F    
Average Humidity 91    
Maximum Humidity 100    
Minimum Humidity 72    
Precipitation  
Precipitation 0.08 in 0.07 in - ()
Sea Level Pressure  
Sea Level Pressure 29.71 in    
Wind  
Wind Speed 6 mph ()    
Max Wind Speed 9 mph    
Max Gust Speed -    
Visibility 8.0 miles    
Events Rain    
T = Trace of Precipitation, MM = Missing Value Source: Averaged Metar Reports

Daily Weather History Graph

Daily Weather History Graph

Search for Another Location

Airport or City:

Astronomy

Jun. 24, 2007 Rise Set
Actual Time 4:51 AM BST 9:29 PM BST
Civil Twilight 4:03 AM BST 10:16 PM BST
Nautical Twilight 2:48 AM BST 11:31 PM BST
Astronomical Twilight 1:42 AM BST 12:37 AM BST
Moon 3:34 PM BST (6/24) 1:10 AM BST (6/24)
Length of Visible Light 18h 13m
Length of Day
16h 38m
Waxing Gibbous, 68% of the Moon is Illuminated
Jun 24
Waxing Gibbous
Jun 30
Full
Jul 7
Last Quarter
Jul 14
New
Jul 22
First Quarter

Hourly Weather History & Observations

Time (BST) Temp. Dew Point Humidity Pressure Visibility Wind Dir Wind Speed Gust Speed Precip Events Conditions
12:50 AM 54 °F 51 °F 86% 29.83 in 16 mi SSW 8.1 mph - -   Overcast
12:50 AM 53.6 °F 51.8 °F 94% 29.83 in 6.2 mi SSW 8.1 mph - N/A   Mostly Cloudy
1:50 AM 53.6 °F 50.0 °F 88% 29.80 in - South 4.6 mph - N/A   Clear
2:50 AM 53.6 °F 50.0 °F 88% 29.80 in - South 5.8 mph - N/A   Clear
3:50 AM 52 °F 50 °F 89% 29.78 in 19 mi SSE 3.5 mph - -   Mostly Cloudy
3:50 AM 51.8 °F 50.0 °F 94% 29.77 in 6.2 mi SSE 3.5 mph - N/A   Mostly Cloudy
4:50 AM 51.8 °F 50.0 °F 94% 29.77 in 6.2 mi South 4.6 mph - N/A   Mostly Cloudy
5:50 AM 53.6 °F 51.8 °F 94% 29.74 in 6.2 mi South 4.6 mph - N/A Rain Light Rain
6:50 AM 53 °F 51 °F 90% 29.76 in 12 mi SSW 6.9 mph - - Rain Light Rain
6:50 AM 53.6 °F 51.8 °F 94% 29.74 in 6.2 mi SSW 6.9 mph - N/A Rain Light Rain
7:50 AM 53.6 °F 51.8 °F 94% 29.74 in 6.2 mi South 9.2 mph - N/A Rain Light Rain
8:50 AM 53.6 °F 51.8 °F 94% 29.74 in 5.6 mi SSW 9.2 mph - N/A Rain Light Rain
9:50 AM 54 °F 53 °F 94% 29.75 in 17 mi South 8.1 mph - - Rain Light Rain
9:50 AM 53.6 °F 53.6 °F 100% 29.74 in 6.2 mi South 8.1 mph - N/A Rain Light Rain
10:50 AM 55.4 °F 53.6 °F 94% 29.71 in 5.0 mi South 9.2 mph - N/A Rain Light Rain
11:50 AM 55.4 °F 53.6 °F 94% 29.71 in 6.2 mi SW 8.1 mph - N/A Rain Light Rain
12:50 PM 55 °F 52 °F 84% 29.73 in 14 mi South 9.2 mph - - Rain Light Rain
12:50 PM 55.4 °F 51.8 °F 88% 29.71 in 6.2 mi South 9.2 mph - N/A Rain Light Rain
1:50 PM 55.4 °F 51.8 °F 88% 29.71 in 6.2 mi South 8.1 mph - N/A Rain Light Rain
2:50 PM 57.2 °F 51.8 °F 82% 29.68 in 6.2 mi South 5.8 mph - N/A   Mostly Cloudy
3:50 PM 57 °F 53 °F 81% 29.69 in 31 mi SSE 5.8 mph - - Rain Light Rain
3:50 PM 57.2 °F 53.6 °F 88% 29.68 in 6.2 mi SSE 5.8 mph - N/A   Mostly Cloudy
4:50 PM 59.0 °F 50.0 °F 72% 29.65 in 6.2 mi SSE 3.5 mph - N/A Rain Light Rain
5:50 PM 57.2 °F 50.0 °F 77% 29.65 in 6.2 mi ESE 4.6 mph - N/A Rain Light Rain
6:50 PM 55 °F 53 °F 92% 29.64 in 8 mi ESE 6.9 mph - - Rain Light Rain
6:50 PM 55.4 °F 53.6 °F 94% 29.62 in 6.2 mi ESE 6.9 mph - N/A Rain Light Rain
7:50 PM 53.6 °F 51.8 °F 94% 29.62 in 6.2 mi ENE 5.8 mph - N/A Rain Light Rain
8:50 PM 53.6 °F 51.8 °F 94% 29.62 in 6.2 mi NNE 6.9 mph - N/A Rain Light Rain
9:50 PM 52 °F 52 °F 98% 29.62 in 12 mi North 4.6 mph - - Rain Light Rain
9:50 PM 51.8 °F 51.8 °F 100% 29.59 in 6.2 mi North 4.6 mph - N/A Rain Light Rain
10:50 PM 51.8 °F 51.8 °F 100% 29.59 in 4.3 mi NW 6.9 mph - N/A Rain Rain
11:50 PM 51.8 °F 51.8 °F 100% 29.56 in 6.2 mi WNW 6.9 mph - N/A Rain Light Rain